Location: Newark
(34.9471°N, 136.1778°E)
Time: 12:03:03
(UTC+00:00)

METEOR M2 - Pass Details

Date: 24 February 2020
Orbit: 818 x 828 km, 98.5° (Epoch: 05 April)

Event Time Altitude Azimuth Distance (km) Brightness Sun altitude
Exits shadow 09:10:51 - 108° (ESE) 2,979 ? -5.9°
Reaches altitude 10° 09:13:17 10° 88° (E) 2,428 ? -6.4°
Maximum altitude 09:15:35 13° 63° (ENE) 2,231 ? -6.9°
Drops below altitude 10° 09:17:53 10° 37° (NE) 2,435 ? -7.4°
Sets 09:21:36 0° 11° (N) 3,374 ? -8.1°
